Regional Weather Roundup
Issued by NWS Little Rock, AR

Home | Current Version | Previous Version | Graphics & Text | Print | Product List | Glossary On
Versions: 1 2 3 4 5 6 7 8 9 10 11 12 13 14 15 16 17 18 19 20 21 22 23 24 25 26 27
000
ASUS44 KLZK 300905
RWRLZK

WEATHER ROUNDUP FOR ARKANSAS
NATIONAL WEATHER SERVICE LITTLE ROCK AR
400 AM CDT TUE AUG 30 2016

NOTE: "FAIR" INDICATES FEW OR NO CLOUDS BELOW 12,000 FEET WITH NO
SIGNIFICANT WEATHER AND/OR OBSTRUCTIONS TO VISIBILITY.

ARZ001-003-010-029-301000-
NORTHWEST ARKANSAS

CITY           SKY/WX    TMP DP  RH WIND       PRES   REMARKS
FAYETTEVILLE   CLEAR     70  70 100 E3        30.12F
FORT SMITH     CLEAR     73  69  87 CALM      30.07F
HARRISON       CLEAR     69  68  96 CALM      30.14F
BENTONVILLE    CLEAR     72  66  83 E3        30.14S
ROGERS         CLEAR     70  69  97 CALM      30.14F
SILOAM SPGS    CLEAR    N/A N/A N/A E3        30.11S
HIGHFILL       CLEAR     73  71  93 E3        30.13F
$$

ARZ004-005-016-301000-
NORTH CENTRAL ARKANSAS

CITY           SKY/WX    TMP DP  RH WIND       PRES   REMARKS
BATESVILLE     MOCLDY    73  72  94 W3        30.09S
FLIPPIN        CLEAR     72  66  83 CALM      30.09S
MTN HOME       CLEAR     73  72  96 CALM      30.11F
$$

ARZ040-041-301000-
WEST CENTRAL ARKANSAS

CITY           SKY/WX    TMP DP  RH WIND       PRES   REMARKS
MENA           CLEAR     72  72 100 CALM      30.09S
MOUNT IDA      CLEAR     73  71  93 CALM      30.06F FOG
$$

ARZ009-017-025-026-028-301000-
NORTHEAST ARKANSAS

CITY           SKY/WX    TMP DP  RH WIND       PRES   REMARKS
JONESBORO      CLEAR     78  75  90 NE5       30.06F
NEWPORT        CLEAR     75  75 100 N7        30.07S FOG
WALNUT RIDGE   CLEAR     75  72  88 N3        30.07F
BLYTHEVILLE    CLEAR     76  74  93 CALM      30.07S
$$

ARZ022-023-033-042-044-301000-
CENTRAL ARKANSAS

CITY           SKY/WX    TMP DP  RH WIND       PRES   REMARKS
LITTLE ROCK    CLEAR     79  73  82 N6        30.04F
N LITTLE ROCK    N/A     77  74  88 N5        30.02F
JACKSONVILLE   CLEAR     75  75  99 CALM      30.05S
SEARCY         CLEAR     77  75  93 N3        30.07S
HOT SPRINGS    CLEAR     76  74  93 CALM      30.06S
RUSSELLVILLE   CLEAR     73  73 100 CALM      30.07S FOG
$$

ARZ036-301000-
EAST ARKANSAS

CITY           SKY/WX    TMP DP  RH WIND       PRES   REMARKS
WEST MEMPHIS   CLEAR     74  73  97 N3        30.03F FOG
$$

ARZ050-053-066-070-073-301000-
SOUTHWEST ARKANSAS

CITY           SKY/WX    TMP DP  RH WIND       PRES   REMARKS
ARKADELPHIA    FAIR      75  74  96 CALM      30.04S
TEXARKANA      CLEAR     74  73  97 CALM      30.03S FOG
EL DORADO      CLEAR     74  72  93 CALM      30.02S
DE QUEEN       PTCLDY    73  73 100 CALM      30.02F FOG
$$

ARZ056-057-069-301000-
SOUTHEAST ARKANSAS

CITY           SKY/WX    TMP DP  RH WIND       PRES   REMARKS
PINE BLUFF     CLEAR     75  73  93 CALM      30.03S
STUTTGART      CLEAR     75  72  88 N6        30.04S
MONTICELLO     CLEAR     77  73  87 CALM      30.01F

$$






USA.gov is the U.S. government's official web portal to all federal, state and local government web resources and services.